Skip Page Navigation
NASA JPL Caltech
NASA Logo - Jet Propulsion Laboratory + View the NASA Portal
+ Near-Earth Object (NEO) Program
Search JPL
JPL Home Earth Solar System Stars & Galaxies Technology
JPL Solar System Dynamics
BODIES ORBITS EPHEMERIDES TOOLS PHYSICAL DATA DISCOVERY FAQ SITE MAP
JPL Small-Body Database Browser
Search: [ help ]  
304330 (2006 SX217)
Classification: Apollo [NEO, PHA]          SPK-ID: 2304330
Ephemeris | Orbit Diagram | Orbital Elements | Physical Parameters | Discovery Circumstances | Close-Approach Data ]

[ hide orbit diagram ]
Orbit Diagram
Note: Make sure you have Java enabled on your browser to see the applet. This applet is provided as a 3D orbit visualization tool. The applet was implemented using 2-body methods, and hence should not be used for determining accurate long-term trajectories (over several years or decades) or planetary encounter circumstances. For accurate long-term ephemerides, please instead use our Horizons system.
Orbit Viewer

Additional Notes: the orbits shown in the applet are color coded. The planets are white lines, and the asteroid/comet is a blue line. The bright white line indicates the portion of the orbit that is above the ecliptic plane, and the darker portion is below the ecliptic plane. Likewise for the asteroid/comet orbit, the light blue indicates the portion above the ecliptic plane, and the dark blue the portion below the ecliptic plane.

Orbit Viewer applet originally written and kindly provided by Osamu Ajiki (AstroArts), and further modified by Ron Baalke (JPL).


Orbital Elements at Epoch 2456400.5 (2013-Apr-18.0) TDB
Reference: JPL 26 (heliocentric ecliptic J2000)
 Element Value Uncertainty (1-sigma)   Units 
e .3098491874839914 3.5935e-07  
a 1.410835322336374 3.2399e-08 AU
q .9736891440367336 5.0515e-07 AU
i 21.0497487702422 4.6459e-05 deg
node 32.66945692559343 2.6476e-05 deg
peri 176.2336095620293 3.298e-05 deg
M 144.0110210388623 3.628e-05 deg
tp 2456155.646598195371
(2012-Aug-16.14659820)
5.75e-05 JED
period 612.0866584640038
1.68
2.1084e-05
5.772e-08
d
yr
n .5881520124999935 2.026e-08 deg/d
Q 1.847981500636015 4.2438e-08 AU
  Orbit Determination Parameters
   # obs. used (total)      100  
   data-arc span      3663 days (10.03 yr)  
   first obs. used      2001-10-19  
   last obs. used      2011-10-30  
   planetary ephem.      DE405  
   SB-pert. ephem.      SB405-CPV-2  
   condition code      0  
   fit RMS      .64172  
   data source      ORB  
   producer      Otto Matic  
   solution date      2013-Apr-29 15:41:28  

Additional Information
 Earth MOID = .0311797 AU 
 T_jup = 4.612 
[ show covariance matrix ]

Ephemeris | Orbit Diagram | Orbital Elements | Physical Parameters | Discovery Circumstances | Close-Approach Data ]

Physical Parameter Table
Parameter Symbol Value Units Sigma Reference Notes
absolute magnitude H 18.933 mag .49347 26 autocmod 2.5c

304330 (2006 SX217)          Discovered 2006-Sep-30 by Mt. Lemmon Survey at Mount Lemmon (G96)
Reference: 20111110/Numbers.arcLast Updated: 2011-11-14

[ show close-approach data ]
Ephemeris | Orbit Diagram | Orbital Elements | Physical Parameters | Discovery Circumstances | Close-Approach Data ]
ABOUT SSD CREDITS/AWARDS PRIVACY/COPYRIGHT GLOSSARY LINKS
FirstGov 2013-Jun-20 09:23 UT
(server date/time)  
NASA Home Page
Site Manager:   Donald K. Yeomans
Webmaster  Alan B. Chamberlin